Regional Weather Roundup
Issued by NWS

Home | Current Version | Previous Version | Graphics & Text | Print | Product List | Glossary On
Versions: 1 2 3 4 5 6 7 8 9 10 11 12 13 14 15 16 17 18 19 20 21 22 23 24 25 26 27 28 29 30 31 32 33 34 35 36 37 38 39 40 41 42 43 44 45 46 47 48 49 50
000
ASUS43 KOAX 211602
RWRNE

WEATHER ROUNDUP FOR NEBRASKA
NATIONAL WEATHER SERVICE OMAHA NE
1100 AM CDT THU AUG 21 2014

NOTES: SATELLITE DATA IS BEING USED TO AUGMENT CLOUD COVER ABOVE
       12000 FEET.
       "FAIR" INDICATES FEW OR NO CLOUDS BELOW 12,000 FEET WITH NO
       SIGNIFICANT WEATHER AND/OR OBSTRUCTIONS TO VISIBILITY.

  * THESE STATIONS DO NOT REPORT WEATHER SUCH AS RAIN...SNOW OR FOG.

NEZ001>004-019>022-054>056-211700-
NEBRASKA PANHANDLE

CITY           SKY/WX    TMP DP  RH WIND       PRES   REMARKS
SCOTTSBLUFF    SUNNY     75  55  49 W7        30.02S
ALLIANCE       SUNNY     79  51  37 N12       29.99R
CHADRON        MOSUNNY   76  56  49 NE8       29.98R
KIMBALL        SUNNY     76  46  34 N14       30.05R
SIDNEY         SUNNY     79  49  34 NW18G24   30.03R
$$

NEZ057>060-069>072-079>082-211700-
SOUTHWEST NEBRASKA

CITY           SKY/WX    TMP DP  RH WIND       PRES   REMARKS
NORTH PLATTE   SUNNY     83  62  49 NE9       29.90R
IMPERIAL       SUNNY     80  54  40 N16       29.95R
LEXINGTON      SUNNY     79  69  72 CALM      29.89R
MCCOOK         MOSUNNY   82  62  50 S7        29.91R
OGALLALA       SUNNY     78  53  41 NW9G17    29.95R
$$

NEZ005>010-023>029-035>040-094-211700-
NORTH CENTRAL NEBRASKA

CITY           SKY/WX    TMP DP  RH WIND       PRES   REMARKS
VALENTINE      SUNNY     77  62  59 N13       29.92R
AINSWORTH      MOSUNNY   73  64  73 N12       29.90F
BROKEN BOW     MOSUNNY   79  66  64 N10       29.88R
O`NEILL        CLOUDY    76  71  85 NW10      29.85R
ORD            MOSUNNY   79  67  66 W7        29.84R
THEDFORD       MOSUNNY   78  60  54 N14       29.93R
$$

NEZ041-046>049-061>064-073>077-083>087-211700-
SOUTH CENTRAL NEBRASKA

CITY           SKY/WX    TMP DP  RH WIND       PRES   REMARKS
GRAND ISLAND   PTSUNNY   80  69  69 S15       29.85R
AURORA         CLOUDY    81  71  71 S15       29.85R
HASTINGS       PTSUNNY   77  65  66 S13       29.85R
HEBRON         HVY RAIN  74  68  80 SE6       29.86R
HOLDREGE       MOSUNNY   79  69  70 S6        29.86R
KEARNEY *      MOSUNNY   81  70  69 S13       29.86R
YORK           CLOUDY    79 N/A N/A S12       29.83S
$$

NEZ011>018-030>034-042>045-211700-
NORTHEAST NEBRASKA

CITY           SKY/WX    TMP DP  RH WIND       PRES   REMARKS
NORFOLK        SUNNY     82  69  64 SW9       29.82S
ALBION         SUNNY     80  68  67 SW6       29.84R
BLAIR          PTSUNNY   83  70  64 S9        29.82F
FREMONT        MOSUNNY   84  68  57 SW8       29.81S
TEKAMAH        MOSUNNY   85  70  60 S10       29.80S
WAYNE          SUNNY     82  71  70 SW10      29.81S
$$

NEZ050>053-065>068-078-088>093-211700-
SOUTHEAST NEBRASKA

CITY           SKY/WX    TMP DP  RH WIND       PRES   REMARKS
LINCOLN        CLOUDY    76  68  76 S10       29.80F
OMAHA EPPLEY   PTSUNNY   81  69  67 SE10      29.82S
BEATRICE       CLOUDY    76  72  87 SE5       29.87F
FALLS CITY     CLOUDY    85  71  63 SW7       29.88R HX  90
NEBRASKA CITY  LGT RAIN  74  70  88 SW9       29.87S
PLATTSMOUTH    LGT RAIN  75  69  79 S16       29.84S
$$

NEZ044-045-051>053-067-211700-
OMAHA AREA

CITY           SKY/WX    TMP DP  RH WIND       PRES   REMARKS
OMAHA EPPLEY   PTSUNNY   81  69  67 SE10      29.82S
BLAIR          PTSUNNY   83  70  64 S9        29.82F
FREMONT        MOSUNNY   84  68  57 SW8       29.81S
MILLARD        PTSUNNY   81  70  70 E6        29.83R
PLATTSMOUTH    LGT RAIN  75  69  79 S16       29.84S
WAHOO          FAIR      83  67  57 S16       29.81R
$$


USA.gov is the U.S. government's official web portal to all federal, state and local government web resources and services.